Faribault, MN

7:36 PM CST on February 25, 2017 (GMT -0600)
Faribault Municipal

Weather History for KFBL - November, 2012

Change the Weather History Date:

Wednesday, November 14, 2012

  Actual Average Record
Temperature  
Mean Temperature 40 °F -  
Max Temperature 51 °F 40 °F 65 °F (1953)
Min Temperature 30 °F 24 °F -4 °F (1959)
Degree Days  
Heating Degree Days 24    
Moisture  
Dew Point 33 °F    
Average Humidity 74    
Maximum Humidity 100    
Minimum Humidity 50    
Precipitation  
Precipitation 0.00 in - - ()
Sea Level Pressure  
Sea Level Pressure 30.22 in    
Wind  
Wind Speed 6 mph (South)    
Max Wind Speed 9 mph    
Max Gust Speed -    
Visibility 10 miles    
Events      
Averages and records for this station are not official NWS values.
T = Trace of Precipitation, MM = Missing Value Source: NWS Daily Summary

Daily Weather History Graph

Daily Weather History Graph

Search for Another Location

Airport or City:

Trip Planner

Search our weather history database for the weather conditions in past years. The results will help you decide how hot, cold, wet, or windy it might be!

Date:

Astronomy

Nov. 14, 2012 Rise Set
Actual Time 7:08 AM CST 4:46 PM CST
Civil Twilight 6:37 AM CST 5:17 PM CST
Nautical Twilight 6:01 AM CST 5:53 PM CST
Astronomical Twilight 5:27 AM CST 6:27 PM CST
Moon 8:00 AM CST (11/14) 5:33 PM CST (11/14)
Length of Visible Light 10h 40m
Length of Day
9h 38m
New Moon, 1% of the Moon is Illuminated
Nov 14
New Moon
Nov 20
First Quarter
Nov 28
Full
Dec 6
Last Quarter
Dec 13
New

Hourly Weather History & Observations

Time (CST) Temp. Windchill Dew Point Humidity Pressure Visibility Wind Dir Wind Speed Gust Speed Precip Events Conditions
12:14 AM 37.4 °F 30.8 °F 28.4 °F 70% 30.27 in 10.0 mi SSE 9.2 mph - N/A   Overcast
12:34 AM 37.4 °F 30.8 °F 28.4 °F 70% 30.26 in 10.0 mi South 9.2 mph - N/A   Overcast
12:54 AM 35.6 °F 29.9 °F 28.4 °F 75% 30.26 in 10.0 mi South 6.9 mph - N/A   Overcast
1:14 AM 35.6 °F 29.2 °F 28.4 °F 75% 30.26 in 10.0 mi South 8.1 mph - N/A   Overcast
1:34 AM 35.6 °F 28.6 °F 28.4 °F 75% 30.25 in 10.0 mi South 9.2 mph - N/A   Overcast
1:54 AM 35.6 °F 28.6 °F 28.4 °F 75% 30.26 in 10.0 mi South 9.2 mph - N/A   Overcast
2:14 AM 35.6 °F 29.9 °F 30.2 °F 81% 30.25 in 10.0 mi South 6.9 mph - N/A   Overcast
2:34 AM 35.6 °F 29.9 °F 30.2 °F 81% 30.26 in 10.0 mi South 6.9 mph - N/A   Overcast
2:54 AM 35.6 °F 31.7 °F 30.2 °F 81% 30.25 in 10.0 mi South 4.6 mph - N/A   Overcast
3:14 AM 35.6 °F 29.9 °F 30.2 °F 81% 30.25 in 10.0 mi South 6.9 mph - N/A   Overcast
3:34 AM 35.6 °F 32.8 °F 30.2 °F 81% 30.26 in 10.0 mi South 3.5 mph - N/A   Overcast
3:54 AM 35.6 °F 30.7 °F 30.2 °F 81% 30.25 in 10.0 mi South 5.8 mph - N/A   Overcast
4:14 AM 35.6 °F 32.8 °F 30.2 °F 81% 30.25 in 10.0 mi South 3.5 mph - N/A   Overcast
4:34 AM 35.6 °F 31.7 °F 30.2 °F 81% 30.25 in 10.0 mi South 4.6 mph - N/A   Overcast
4:54 AM 33.8 °F 28.6 °F 30.2 °F 87% 30.25 in 10.0 mi South 5.8 mph - N/A   Overcast
5:14 AM 35.6 °F 31.7 °F 30.2 °F 81% 30.25 in 10.0 mi South 4.6 mph - N/A   Overcast
5:34 AM 33.8 °F 30.8 °F 30.2 °F 87% 30.25 in 10.0 mi SSE 3.5 mph - N/A   Mostly Cloudy
5:54 AM 33.8 °F 30.8 °F 30.2 °F 87% 30.25 in 10.0 mi South 3.5 mph - N/A   Mostly Cloudy
6:14 AM 33.8 °F - 30.2 °F 87% 30.25 in 10.0 mi Calm Calm - N/A   Overcast
6:34 AM 33.8 °F 29.6 °F 30.2 °F 87% 30.25 in 10.0 mi SSE 4.6 mph - N/A   Overcast
6:54 AM 32.0 °F 28.7 °F 30.2 °F 93% 30.25 in 10.0 mi SSE 3.5 mph - N/A   Mostly Cloudy
7:14 AM 32.0 °F 28.7 °F 30.2 °F 93% 30.26 in 10.0 mi SSE 3.5 mph - N/A   Scattered Clouds
7:34 AM 30.2 °F 26.7 °F 30.2 °F 100% 30.26 in 10.0 mi SSE 3.5 mph - N/A   Mostly Cloudy
7:54 AM 33.8 °F 29.6 °F 30.2 °F 87% 30.27 in 10.0 mi South 4.6 mph - N/A   Scattered Clouds
8:14 AM 33.8 °F 29.6 °F 32.0 °F 93% 30.26 in 10.0 mi South 4.6 mph - N/A   Scattered Clouds
8:34 AM 35.6 °F 31.7 °F 32.0 °F 87% 30.26 in 10.0 mi South 4.6 mph - N/A   Mostly Cloudy
8:53 AM 37.4 °F 32.1 °F 33.8 °F 87% 30.27 in 10.0 mi South 6.9 mph - N/A   Mostly Cloudy
9:14 AM 37.4 °F 31.4 °F 33.8 °F 87% 30.27 in 10.0 mi SSW 8.1 mph - N/A   Scattered Clouds
9:34 AM 37.4 °F 32.8 °F 33.8 °F 87% 30.26 in 10.0 mi South 5.8 mph - N/A   Mostly Cloudy
9:53 AM 39.2 °F 35.9 °F 35.6 °F 87% 30.26 in 10.0 mi South 4.6 mph - N/A   Mostly Cloudy
10:14 AM 42.8 °F 39.3 °F 35.6 °F 76% 30.27 in 10.0 mi South 5.8 mph - N/A   Clear
10:34 AM 42.8 °F 38.0 °F 35.6 °F 76% 30.27 in 10.0 mi South 8.1 mph - N/A   Clear
10:53 AM 42.8 °F 39.3 °F 35.6 °F 76% 30.26 in 10.0 mi SSW 5.8 mph - N/A   Clear
11:14 AM 44.6 °F 40.7 °F 35.6 °F 71% 30.25 in 10.0 mi SSW 6.9 mph - N/A   Clear
11:34 AM 44.6 °F 41.4 °F 35.6 °F 71% 30.25 in 10.0 mi South 5.8 mph - N/A   Clear
11:54 AM 46.4 °F 42.4 °F 35.6 °F 66% 30.25 in 10.0 mi SW 8.1 mph - N/A   Clear
12:14 PM 48.2 °F - 35.6 °F 62% 30.23 in 10.0 mi SSE 9.2 mph - N/A   Clear
12:34 PM 48.2 °F - 35.6 °F 62% 30.23 in 10.0 mi South 6.9 mph - N/A   Clear
12:54 PM 48.2 °F - 35.6 °F 62% 30.23 in 10.0 mi South 6.9 mph - N/A   Clear
1:14 PM 50.0 °F - 35.6 °F 58% 30.22 in 10.0 mi South 5.8 mph - N/A   Clear
1:34 PM 51.8 °F - 33.8 °F 50% 30.22 in 10.0 mi South 8.1 mph - N/A   Clear
1:54 PM 48.2 °F - 33.8 °F 58% 30.21 in 10.0 mi South 8.1 mph - N/A   Scattered Clouds
2:14 PM 48.2 °F - 33.8 °F 58% 30.21 in 10.0 mi South 5.8 mph - N/A   Overcast
2:34 PM 48.2 °F - 32.0 °F 54% 30.21 in 10.0 mi South 5.8 mph - N/A   Overcast
2:54 PM 48.2 °F - 32.0 °F 54% 30.21 in 10.0 mi South 5.8 mph - N/A   Mostly Cloudy
3:14 PM 48.2 °F - 33.8 °F 58% 30.20 in 10.0 mi Calm Calm - N/A   Scattered Clouds
3:34 PM 48.2 °F - 33.8 °F 58% 30.21 in 10.0 mi Calm Calm - N/A   Scattered Clouds
3:54 PM 48.2 °F - 33.8 °F 58% 30.20 in 10.0 mi South 3.5 mph - N/A   Clear
4:14 PM 48.2 °F - 33.8 °F 58% 30.20 in 10.0 mi South 4.6 mph - N/A   Clear
4:34 PM 46.4 °F 45.2 °F 33.8 °F 62% 30.19 in 10.0 mi South 3.5 mph - N/A   Clear
4:53 PM 46.4 °F 45.2 °F 33.8 °F 62% 30.19 in 10.0 mi South 3.5 mph - N/A   Clear
5:14 PM 44.6 °F - 33.8 °F 66% 30.18 in 10.0 mi Calm Calm - N/A   Clear
5:34 PM 41.0 °F 39.0 °F 33.8 °F 76% 30.18 in 10.0 mi SSE 3.5 mph - N/A   Clear
5:54 PM 42.8 °F 40.1 °F 33.8 °F 70% 30.18 in 10.0 mi SE 4.6 mph - N/A   Scattered Clouds
6:14 PM 44.6 °F 43.1 °F 33.8 °F 66% 30.18 in 10.0 mi SSE 3.5 mph - N/A   Scattered Clouds
6:34 PM 44.6 °F - 33.8 °F 66% 30.18 in 10.0 mi Calm Calm - N/A   Clear
6:54 PM 44.6 °F - 33.8 °F 66% 30.18 in 10.0 mi Calm Calm - N/A   Clear
7:14 PM 44.6 °F 43.1 °F 33.8 °F 66% 30.18 in 10.0 mi SSE 3.5 mph - N/A   Clear
7:34 PM 42.8 °F 41.1 °F 33.8 °F 70% 30.18 in 10.0 mi SSE 3.5 mph - N/A   Clear
7:54 PM 42.8 °F 40.1 °F 33.8 °F 70% 30.18 in 10.0 mi SSE 4.6 mph - N/A   Clear
8:34 PM 42.8 °F 40.1 °F 33.8 °F 70% 30.17 in 10.0 mi SSE 4.6 mph - N/A   Clear
8:54 PM 42.8 °F 40.1 °F 33.8 °F 70% 30.17 in 10.0 mi South 4.6 mph - N/A   Clear
9:14 PM 42.8 °F 40.1 °F 33.8 °F 70% 30.17 in 10.0 mi South 4.6 mph - N/A   Clear
9:34 PM 41.0 °F 37.1 °F 33.8 °F 76% 30.17 in 10.0 mi South 5.8 mph - N/A   Clear
9:54 PM 41.0 °F 36.4 °F 33.8 °F 76% 30.17 in 10.0 mi South 6.9 mph - N/A   Scattered Clouds
10:14 PM 41.0 °F 36.4 °F 33.8 °F 76% 30.17 in 10.0 mi South 6.9 mph - N/A   Mostly Cloudy
10:34 PM 39.2 °F 34.2 °F 33.8 °F 81% 30.17 in 10.0 mi South 6.9 mph - N/A   Mostly Cloudy
10:54 PM 39.2 °F 35.9 °F 32.0 °F 75% 30.17 in 10.0 mi SSE 4.6 mph - N/A   Mostly Cloudy
11:03 PM 39.2 °F 35.9 °F 32.0 °F 75% 30.17 in 10.0 mi South 4.6 mph - N/A   Mostly Cloudy
11:37 PM 39.2 °F 35.0 °F 32.0 °F 75% 30.17 in 10.0 mi South 5.8 mph - N/A   Clear
11:54 PM 39.2 °F 35.0 °F 32.0 °F 75% 30.16 in 10.0 mi South 5.8 mph - N/A   Scattered Clouds